GW6647 Weather Reports


Display with metric or nautical units.
time (UTC)temp
F
wind
direction
speed
MPH
gust
MPH
rain 1hr
in
rain 24hr
in
rain mn
in
humidity
%
barometer
mb
20260504141118 57 269 10.0 13.0 0.00 0.05 0.05 71 1017.6
20260504140615 57 327 8.0 17.0 0.00 0.05 0.05 70 1017.4
20260504140110 57 294 5.0 13.0 0.00 0.05 0.05 71 1017.4
20260504130539 58 303 8.0 11.0 0.00 0.05 0.05 71 1017.6
20260504110426 59 304 9.0 13.0 0.00 0.05 0.05 71 1015.1
20260504100343 60 275 6.0 10.0 0.00 0.05 0.05 70 1013.7
20260504081737 65 30 12.0 17.0 0.00 0.05 0.05 63 1011.2
20260504081233 68 350 14.0 18.0 0.00 0.05 0.05 59 1011.0
20260504080730 69 277 10.0 16.0 0.00 0.05 0.05 44 1010.6
20260504080226 69 313 12.0 18.0 0.00 0.05 0.05 43 1010.4
20260504070153 71 316 9.0 14.0 0.00 0.05 0.05 44 1009.4
20260504060114 71 268 9.0 18.0 0.00 0.05 0.05 42 1008.5
20260504050542 71 280 12.0 17.0 0.00 0.05 0.05 41 1008.3
20260504045536 70 271 10.0 17.0 0.00 0.05 0.05 40 1008.0
20260504045031 71 289 11.0 17.0 0.00 0.05 0.05 40 1008.0
20260504044529 71 286 9.0 16.0 0.00 0.05 0.05 41 1008.0
20260504044026 71 303 6.0 10.0 0.00 0.05 0.05 43 1007.7
20260504043523 71 273 8.0 10.0 0.00 0.05 0.05 42 1007.8
20260504043020 71 264 10.0 10.0 0.00 0.05 0.05 42 1007.8
20260504042517 72 280 9.0 17.0 0.00 0.05 0.05 40 1007.6
20260504042014 72 275 10.0 14.0 0.00 0.05 0.05 39 1007.6
20260504041510 72 265 7.0 9.0 0.00 0.05 0.05 43 1007.7
20260504041006 72 260 7.0 15.0 0.00 0.05 0.05 42 1007.8
20260504040504 73 290 9.0 15.0 0.00 0.05 0.05 44 1007.6
20260504035959 73 270 5.0 10.0 0.00 0.05 0.05 46 1007.7
20260504035457 72 238 11.0 15.0 0.00 0.05 0.05 43 1007.9
20260504034953 73 304 11.0 17.0 0.00 0.05 0.05 46 1007.7
20260504034451 72 277 9.0 19.0 0.00 0.05 0.05 47 1007.6
20260504033948 72 321 4.0 11.0 0.00 0.05 0.05 48 1007.5
20260504033446 71 274 10.0 13.0 0.00 0.05 0.05 47 1007.7
20260504032943 72 268 14.0 18.0 0.00 0.05 0.05 46 1007.6
20260504032440 72 269 8.0 17.0 0.00 0.05 0.05 50 1007.7
20260504031936 72 295 6.0 9.0 0.00 0.05 0.05 48 1007.6
20260504031433 71 287 9.0 13.0 0.00 0.05 0.05 50 1007.5
20260504030930 71 315 10.0 15.0 0.00 0.05 0.05 50 1007.7
20260504030427 71 264 17.0 19.0 0.00 0.05 0.05 46 1007.6
20260504025923 70 293 17.0 24.0 0.00 0.05 0.05 51 1007.2
20260504025420 69 299 16.0 22.0 0.00 0.05 0.05 53 1007.6
20260504024917 70 274 14.0 22.0 0.00 0.05 0.05 54 1007.2
20260504024414 70 289 18.0 23.0 0.00 0.05 0.05 53 1007.2
20260504023911 71 258 16.0 22.0 0.00 0.05 0.05 52 1007.3
20260504023407 71 264 9.0 19.0 0.00 0.05 0.05 52 1007.2
20260504022903 71 291 16.0 18.0 0.00 0.05 0.05 52 1007.1
20260504022400 71 132 12.0 16.0 0.00 0.05 0.05 53 1007.4
20260504021856 71 299 7.0 21.0 0.00 0.05 0.05 57 1007.4
20260504021354 71 270 14.0 19.0 0.00 0.05 0.05 53 1007.3
20260504020850 71 275 13.0 17.0 0.00 0.05 0.05 53 1007.2
20260504020347 72 43 6.0 14.0 0.00 0.05 0.05 56 1007.4
20260504015843 71 298 11.0 13.0 0.00 0.05 0.05 55 1007.2
20260504015340 70 298 9.0 21.0 0.00 0.05 0.05 56 1007.4
20260504014836 70 288 17.0 18.0 0.00 0.05 0.05 54 1007.4
20260504014332 70 313 12.0 19.0 0.00 0.05 0.05 54 1007.2
20260504013830 70 289 17.0 24.0 0.00 0.05 0.05 54 1007.3
20260504013327 71 296 12.0 18.0 0.00 0.05 0.05 55 1007.3
20260504012824 71 283 9.0 15.0 0.00 0.05 0.05 54 1007.4
20260504012322 71 273 15.0 21.0 0.00 0.05 0.05 53 1007.6
20260504011819 70 271 13.0 19.0 0.00 0.05 0.05 55 1007.4
20260504011315 70 245 9.0 13.0 0.00 0.05 0.05 56 1007.3
20260504010811 69 273 11.0 13.0 0.00 0.05 0.05 56 1007.4
20260504010307 69 315 13.0 21.0 0.00 0.05 0.05 55 1007.0
20260504005804 70 256 13.0 19.0 0.00 0.05 0.05 55 1007.3
20260504005301 70 286 8.0 13.0 0.00 0.05 0.05 56 1007.2
20260504004759 70 336 9.0 13.0 0.00 0.05 0.05 57 1007.3
20260504004256 70 276 14.0 17.0 0.00 0.05 0.05 56 1007.1
20260504003752 69 300 6.0 13.0 0.00 0.05 0.05 61 1007.3
20260504003249 69 286 10.0 14.0 0.00 0.05 0.05 60 1007.0
20260504002745 69 277 13.0 19.0 0.00 0.05 0.05 60 1007.2
20260504002242 69 305 8.0 13.0 0.00 0.05 0.05 61 1007.4
20260504001740 69 323 8.0 10.0 0.00 0.05 0.05 62 1007.2
20260504001237 69 292 15.0 21.0 0.00 0.05 0.05 60 1007.1
20260504000733 69 265 12.0 19.0 0.00 0.05 0.05 61 1006.9
20260504000231 69 300 12.0 16.0 0.00 0.05 0.05 62 1006.9
20260503235729 69 294 14.0 17.0 0.00 0.05 0.05 61 1006.9
20260503235226 69 279 9.0 14.0 0.00 0.05 0.05 63 1006.7
20260503234724 69 295 5.0 8.0 0.00 0.05 0.05 63 1006.4
20260503234222 69 103 1.0 4.0 0.00 0.05 0.05 68 1006.4
20260503233718 68 195 2.0 6.0 0.00 0.05 0.05 70 1006.7
20260503233214 67 262 3.0 6.0 0.00 0.05 0.05 72 1006.8
20260503232711 67 295 2.0 3.0 0.00 0.05 0.05 71 1006.8
20260503232208 66 349 3.0 8.0 0.00 0.05 0.05 70 1006.7
20260503231707 66 207 3.0 7.0 0.00 0.05 0.05 72 1006.7
20260503231203 66 253 7.0 9.0 0.00 0.05 0.05 72 1006.8
20260503230659 66 291 3.0 4.0 0.00 0.05 0.05 75 1006.9
20260503230156 66 183 3.0 6.0 0.00 0.05 0.05 74 1006.7
20260503225654 66 277 5.0 6.0 0.00 0.05 0.05 74 1006.7
20260503225153 66 297 7.0 10.0 0.00 0.05 0.05 73 1006.5
20260503224651 66 267 6.0 13.0 0.00 0.05 0.05 73 1006.8
20260503224149 66 282 8.0 10.0 0.00 0.05 0.05 74 1006.5
20260503223647 66 297 12.0 17.0 0.00 0.05 0.05 73 1006.7
20260503223143 66 273 7.0 16.0 0.00 0.05 0.05 75 1006.7
20260503222640 66 270 7.0 9.0 0.00 0.05 0.05 77 1006.5
20260503222137 66 317 7.0 11.0 0.00 0.05 0.05 77 1006.4
20260503221636 66 278 8.0 9.0 0.00 0.05 0.05 78 1006.1
20260503221133 65 274 6.0 10.0 0.00 0.05 0.05 79 1005.7
20260503220630 65 231 3.0 7.0 0.00 0.05 0.05 83 1005.6
20260503220126 65 173 0.0 3.0 0.00 0.05 0.05 84 1005.5
20260503215623 65 189 0.0 0.0 0.00 0.05 0.05 86 1005.6
20260503215120 65 277 2.0 3.0 0.00 0.05 0.05 84 1005.2
20260503214619 65 198 1.0 2.0 0.00 0.05 0.05 85 1005.4
20260503214115 65 196 1.0 2.0 0.00 0.05 0.05 84 1005.6
20260503213614 65 229 1.0 1.0 0.00 0.05 0.05 84 1005.5
20260503213110 65 241 2.0 3.0 0.00 0.05 0.05 83 1005.3
20260503212608 65 289 4.0 6.0 0.00 0.05 0.05 83 1005.2
20260503212105 65 257 2.0 6.0 0.00 0.05 0.05 83 1005.0
20260503211602 65 354 2.0 3.0 0.00 0.05 0.05 83 1005.1
20260503211057 65 315 3.0 4.0 0.00 0.05 0.05 83 1005.0
20260503210554 65 273 2.0 3.0 0.00 0.05 0.05 82 1005.0
20260503210050 65 4 2.0 8.0 0.00 0.05 0.05 82 1005.0
20260503205547 65 267 4.0 7.0 0.00 0.05 0.05 82 1004.7
20260503205043 65 310 6.0 11.0 0.00 0.05 0.05 82 1004.9
20260503204540 65 316 4.0 7.0 0.00 0.05 0.05 82 1004.7
20260503204037 65 251 6.0 9.0 0.00 0.05 0.05 83 1004.5
20260503203534 65 269 6.0 7.0 0.00 0.05 0.05 85 1004.6
20260503203031 65 270 7.0 9.0 0.00 0.05 0.05 85 1004.5
20260503202529 65 287 9.0 13.0 0.00 0.05 0.05 84 1004.6
20260503202027 66 263 10.0 16.0 0.00 0.05 0.05 83 1004.5
20260503201525 66 281 7.0 11.0 0.00 0.05 0.05 83 1004.3
20260503201022 67 309 6.0 8.0 0.00 0.05 0.05 84 1004.4
20260503200518 67 285 7.0 8.0 0.00 0.05 0.05 85 1004.2
20260503200015 67 268 5.0 9.0 0.00 0.05 0.05 87 1004.2
20260503195512 67 267 5.0 9.0 0.00 0.05 0.05 87 1004.1
20260503195009 67 309 6.0 8.0 0.00 0.05 0.05 89 1004.1
20260503194506 67 298 4.0 6.0 0.00 0.05 0.05 90 1004.0
20260503194000 67 307 3.0 3.0 0.00 0.05 0.05 92 1003.9
20260503193457 67 345 2.0 3.0 0.00 0.05 0.05 93 1003.8
20260503192952 67 103 1.0 3.0 0.00 0.05 0.05 93 1003.5
20260503192449 67 276 2.0 3.0 0.00 0.05 0.05 94 1003.7
20260503191944 66 265 2.0 3.0 0.00 0.05 0.05 95 1003.6
20260503191442 66 264 2.0 3.0 0.00 0.05 0.05 96 1003.5
20260503190938 66 166 1.0 3.0 0.00 0.05 0.05 96 1003.6
20260503190436 66 76 0.0 1.0 0.00 0.05 0.05 96 1003.4
20260503185933 66 133 0.0 0.0 0.00 0.05 0.05 96 1003.3
20260503185429 66 102 0.0 0.0 0.00 0.05 0.05 96 1002.8
20260503184928 66 182 0.0 0.0 0.00 0.05 0.05 96 1003.0
20260503184425 66 121 0.0 0.0 0.00 0.05 0.05 96 1003.0
20260503183922 66 129 0.0 1.0 0.00 0.05 0.05 96 1002.7
20260503183418 66 76 0.0 0.0 0.00 0.05 0.05 96 1003.3
20260503182915 66 53 1.0 2.0 0.00 0.05 0.05 96 1003.4
20260503182414 66 165 0.0 0.0 0.00 0.05 0.05 96 1003.3
20260503181911 66 144 0.0 0.0 0.00 0.05 0.05 96 1003.1
20260503181408 66 144 0.0 0.0 0.00 0.05 0.05 96 1003.1
20260503180904 66 143 0.0 1.0 0.00 0.05 0.05 96 1003.0
20260503180403 66 168 0.0 0.0 0.00 0.05 0.05 96 1002.8
20260503175858 66 168 0.0 0.0 0.00 0.05 0.05 96 1002.7
20260503175357 66 167 0.0 2.0 0.00 0.05 0.05 95 1002.8
20260503174857 66 172 0.0 0.0 0.00 0.05 0.05 95 1002.6
20260503174356 66 287 2.0 2.0 0.05 0.05 0.05 95 1002.6
20260503173856 66 198 0.0 1.0 0.12 0.05 0.05 95 1003.0
20260503173353 66 167 1.0 2.0 0.12 0.04 0.04 94 1003.0
20260503172850 65 170 0.0 1.0 0.12 0.03 0.03 94 1002.7
20260503172348 66 293 3.0 6.0 0.07 0.02 0.02 94 1002.6
20260503171843 66 340 5.0 8.0 0.00 0.01 0.01 93 1002.7
20260503171340 66 312 6.0 10.0 0.00 0.01 0.01 93 1002.5
20260503170838 66 266 5.0 9.0 0.00 0.01 0.01 93 1002.5
20260503170334 66 274 3.0 8.0 0.00 0.01 0.01 92 1002.2
20260503150727 70 195 4.0 9.0 0.00 0.00 0.00 90 1004.0
20260503150223 70 162 5.0 10.0 0.00 0.00 0.00 90 1004.3